Location: Lecco
(45.8566°N, 9.3977°E)
Time: 19:13:32
(UTC+02:00)

SR - Visible Passes

Search period start: 17 May 2021 00:00
Search period end: 27 May 2021 00:00
Orbit: 573 x 882 km, 66.7° (Epoch: 16 May)

Date Brightness Start Highest point End Pass type
(mag) Time Alt. Az. Time Alt. Az. Time Alt. Az.
17 May ? 01:34:08 38° ESE 01:34:30 38° ESE 01:39:56 10° NE visible
17 May ? 03:13:31 25° WSW 03:16:35 45° NW 03:22:16 10° NNE visible
17 May ? 04:57:01 10° WNW 05:00:14 15° NNW 05:03:28 10° N visible
18 May ? 00:45:22 21° ESE 00:45:22 21° ESE 00:49:21 10° ENE visible
18 May ? 02:24:44 45° SW 02:26:35 75° NW 02:32:34 10° NNE visible
18 May ? 04:05:22 10° W 04:09:43 21° NW 04:14:03 10° NNE visible
18 May ? 23:56:34 10° E 23:56:34 10° E 23:56:50 10° E visible
19 May ? 01:35:56 57° SSE 01:36:48 65° ESE 01:42:41 10° NE visible
19 May ? 03:15:18 15° W 03:19:22 30° NW 03:24:33 10° NNE visible
19 May ? 05:01:36 10° NW 05:03:28 11° NNW 05:05:20 10° N visible
20 May ? 00:47:04 36° ESE 00:47:11 36° ESE 00:52:33 10° NE visible
20 May ? 02:26:25 28° WSW 02:29:12 47° NW 02:34:57 10° NNE visible
20 May ? 04:09:28 10° WNW 04:12:49 15° NNW 04:16:09 10° N visible
20 May ? 23:58:08 20° E 23:58:08 20° E 00:01:53 10° ENE visible
21 May ? 01:37:30 48° SW 01:39:14 79° NW 01:45:13 10° NNE visible
21 May ? 03:17:52 10° W 03:22:19 21° NW 03:26:44 10° NNE visible
22 May ? 00:48:30 53° SSE 00:49:28 61° ESE 00:55:19 10° NE visible
22 May ? 02:27:52 15° W 02:31:59 31° NW 02:37:13 10° NNE visible
22 May ? 04:14:00 10° NW 04:16:02 12° NNW 04:18:03 10° N visible
22 May ? 23:59:26 33° ESE 23:59:52 34° ESE 00:05:09 10° NE visible
23 May ? 01:38:47 26° WSW 01:41:51 50° NW 01:47:36 10° NNE visible
23 May ? 03:21:55 10° WNW 03:25:23 16° NNW 03:28:50 10° N visible
23 May ? 23:10:16 19° ESE 23:10:28 19° ESE 23:14:24 10° ENE visible
24 May ? 00:49:36 40° SW 00:51:53 83° NW 00:57:52 10° NNE visible
24 May ? 02:30:22 10° W 02:34:54 22° NW 02:39:25 10° NNE visible
25 May ? 00:00:19 41° S 00:02:08 57° ESE 00:07:57 10° NE visible
25 May ? 01:39:38 11° WSW 01:44:35 33° NW 01:49:54 10° NNE visible
25 May ? 03:26:25 10° NW 03:28:35 12° NNW 03:30:45 10° N visible
25 May ? 23:10:52 27° SE 23:12:33 32° ESE 23:17:44 10° NE visible
26 May ? 00:50:11 18° WSW 00:54:28 52° NW 01:00:16 10° NNE visible
26 May ? 02:34:22 10° WNW 02:37:57 16° NNW 02:41:31 10° N visible
26 May ? 22:21:14 15° SE 22:23:10 17° ESE 22:26:54 10° ENE visible
